Regional Weather Roundup
Issued by NWS Green Bay, WI

Home | Current Version | Previous Version | Graphics & Text | Print | Product List | Glossary Off
Versions: 1 2 3 4 5 6 7 8 9 10 11 12 13 14 15 16 17 18 19 20 21 22 23 24 25 26 27 28 29 30 31 32 33 34 35 36 37 38 39 40 41 42 43 44 45 46 47 48 49 50

000
ASUS43 KGRB 241659
RWRGRB

NORTH-CENTRAL AND NORTHEAST WISCONSIN REGIONAL WEATHER ROUNDUP
NATIONAL WEATHER SERVICE GREEN BAY WI
1200 PM CDT THU APR 24 2014

WIZ005-009-010>012-018-019-241800-
NORTH CENTRAL WISCONSIN

CITY           SKY/WX    TMP DP  RH WIND       PRES   REMARKS
IRONWOOD       CLOUDY    39  30  70 SE12G21   29.89F
MANITOWISH WTR NOT AVBL
ARBOR VITAE    NOT AVBL
EAGLE RIVER    NOT AVBL
LAND O LAKES   NOT AVBL
RHINELANDER    LGT SNOW  33  31  92 E13       29.94F FOG
PHILLIPS       NOT AVBL
ANTIGO         NOT AVBL
TOMAHAWK       NOT AVBL
MERRILL        NOT AVBL
$$

WIZ013-073-241800-
NORTHEAST WISCONSIN

CITY           SKY/WX    TMP DP  RH WIND       PRES   REMARKS
IRON MOUNTAIN  LGT RAIN  40  30  67 SE12G21   30.01F
MARINETTE      CLOUDY    37  30  75 SE6       30.04F
$$

WIZ017-030-035>037-045-241800-
CENTRAL WISCONSIN

CITY           SKY/WX    TMP DP  RH WIND       PRES   REMARKS
MEDFORD        NOT AVBL
WAUSAU         MIX PCPN  37  35  92 E15       29.89F FOG
MOSINEE        LGT RAIN  37  37 100 E14G21    29.90F
MARSHFIELD     LGT RAIN  40  37  89 SE21G29   29.84F FOG
WISC RAPIDS    LGT RAIN  42  38  85 E14G20    29.88F
STEVENS POINT  NOT AVBL
WAUPACA        NOT AVBL
SHAWANO        NOT AVBL
CLINTONVILLE   NOT AVBL
$$

WIZ038-039-048-051-241800-
FOX VALLEY

CITY           SKY/WX    TMP DP  RH WIND       PRES   REMARKS
NWS GREEN BAY  LGT RAIN  42  39  89 E10       29.99F
APPLETON       CLOUDY    43  39  87 E7        29.96F
OSHKOSH        CLOUDY    44  37  76 E12       29.93F
FOND DU LAC    CLOUDY    46  36  68 SE15G22   29.92F
$$

WIZ022-050-052-241800-
EAST CENTRAL WISCONSIN

CITY           SKY/WX    TMP DP  RH WIND       PRES   REMARKS
STURGEON BAY   CLOUDY    39  32  75 SE7       30.05F
MANITOWOC      NOT AVBL
SHEBOYGAN      CLOUDY    42  35  76 E15       29.97F
$$

LMZ563-521-522-541>543-241800-
LAKESHORE

STATION/POSITION TIME  TEMP    WIND        PRES    VSBY  WAVE
                       AIR SEA DIR/SP/G                  HT/PER
                 (UTC) (F)     (DEG/KT/KT) (MB)    (MI)  (FT/S)
SHEBOYGAN LKSHOR 1600   40     100/ 19/ 21 1016.3F
KEWAUNEE LKSHORE 1600   36     110/  5/  8 1017.8F
NORTHPORT PIER   1600   36     110/  3/  4 1018.6F
SISTER BAY LKSHO 1600   44     130/  7/ 10   N/A
MENOMINEE LKSHOR 1600   35      50/  2/  4 1018.4F
$$



USA.gov is the U.S. government's official web portal to all federal, state and local government web resources and services.